This is the latest recevied weather packets stored in our database for station/object K5FEP. If no packets are shown the sender has not sent any weather packets the latest 10 day(s).
| Time | Temp. | Humidity | Pressure | Rain* | Wind** | Luminosity | Snow |
|---|---|---|---|---|---|---|---|
| 1788561940 | 35° C | 45% | 1011.4 hPa | 0 mm | - | 47 W/m² | - |
| 1788561640 | 35° C | 44% | 1011.4 hPa | 0 mm | - | 64 W/m² | - |
| 1788561339 | 35° C | 43% | 1011.4 hPa | 0 mm | - | 95 W/m² | - |
| 1788561035 | 34.44° C | 43% | 1011.2 hPa | 0 mm | - | 117 W/m² | - |
| 1788560730 | 34.44° C | 40% | 1011 hPa | 0 mm | - | 116 W/m² | - |
| 1788560426 | 33.89° C | 43% | 1011.2 hPa | 0 mm | - | 136 W/m² | - |
| 1788560120 | 33.89° C | 43% | 1011.1 hPa | 0 mm | - | 53 W/m² | - |
| 1788559815 | 34.44° C | 45% | 1011.2 hPa | 0 mm | - | 62 W/m² | - |
| 1788559514 | 35° C | 44% | 1011.3 hPa | 0 mm | - | 64 W/m² | - |
| 1788559211 | 35.56° C | 43% | 1011.5 hPa | 0 mm | - | 68 W/m² | - |
| 1788558905 | 36.67° C | 43% | 1011.5 hPa | 0 mm | - | 61 W/m² | - |
| 1788558601 | 36.67° C | 43% | 1011.3 hPa | 0 mm | - | 64 W/m² | - |
| 1788558296 | 37.78° C | 41% | 1011.2 hPa | 0 mm | - | 73 W/m² | - |
| 1788557991 | 38.89° C | 39% | 1011.1 hPa | 0 mm | - | 148 W/m² | - |
| 1788557689 | 38.89° C | 39% | 1011.1 hPa | 0 mm | - | 359 W/m² | - |
| 1788557386 | 38.33° C | 39% | 1011 hPa | 0 mm | - | 376 W/m² | - |
| 1788557085 | 38.89° C | 38% | 1011.3 hPa | 0 mm | - | 393 W/m² | - |
| 1788556780 | 39.44° C | 35% | 1011.4 hPa | 0 mm | - | 406 W/m² | - |
| 1788556480 | 39.44° C | 32% | 1011.5 hPa | 0 mm | - | 423 W/m² | - |
| 1788556176 | 40° C | 31% | 1011 hPa | 0 mm | - | 428 W/m² | - |
| 1788555875 | 39.44° C | 32% | 1011.1 hPa | 0 mm | - | 439 W/m² | - |
| 1788555571 | 40° C | 32% | 1011 hPa | 0 mm | - | 462 W/m² | - |
| 1788555266 | 39.44° C | 32% | 1011.2 hPa | 0 mm | - | 460 W/m² | - |
| 1788554964 | 40° C | 31% | 1010.9 hPa | 0 mm | - | 452 W/m² | - |
| 1788554659 | 40° C | 31% | 1010.7 hPa | 0 mm | - | 474 W/m² | - |
* Rain latest hour (hover to see other rain measurements)
** Current wind speed in m/s (hover to see current wind gust speed)